Regional Weather Roundup
Issued by NWS Goodland, KS

Home | Current Version | Previous Version | Text Only | Print | Product List | Glossary On
Versions: 1 2 3 4 5 6 7 8 9 10 11 12 13 14 15 16 17 18 19 20 21 22 23 24 25 26 27 28 29 30 31 32 33 34 35 36 37 38 39 40 41 42 43 44 45 46 47 48 49 50
000
ASUS43 KGLD 291208
RWRGLD

GOODLAND FORECAST AREA HOURLY WEATHER ROUNDUP
NATIONAL WEATHER SERVICE GOODLAND KS
600 AM MDT SUN MAR 29 2015

...OFFICIAL OBSERVATIONS...

CITY           SKY/WX    TMP DP  RH WIND       PRES   REMARKS
GOODLAND KS    CLEAR     49  32  52 N16       30.06R
HILL CITY KS   PTCLDY    54  33  45 N12       29.99R
IMPERIAL NEB     N/A     48  24  39 NW13      30.08R
MCCOOK NEB     PTCLDY    52  29  41 NW13      30.02R
AKRON CO       CLEAR     39  21  48 N12       30.17R
BURLINGTON CO  PTCLDY    48  29  47 N16G26    30.10R
LIMON CO       CLEAR     39  24  55 N14       30.17R
$$

...UNOFFICIAL OBSERVATIONS...

CITY           SKY/WX    TMP DP  RH WIND       PRES   REMARKS
COLBY KS       CLEAR     52  30  43 NW16G22   30.04R
GOVE KS          N/A     56  32  40 MISG        N/A
LENORA KS        N/A     53  32  45 MISG        N/A
NORTON KS      CLEAR     54  30  40 NW12      29.98R
SHARON SPRINGS   N/A     53  38  56 NE17        N/A
TRIBUNE KS     CLEAR     55  43  62 N15       30.06R
KIT CARSON CO    N/A     50  27  41 MISG        N/A
YUMA CO          N/A     43  20  39 N12         N/A
$$


USA.gov is the U.S. government's official web portal to all federal, state and local government web resources and services.